Wetbulb
59.48 59.36 58.89 58.27 57.84 57.41 57.15 56.78 56.14 56.18 55.98 56.05 56.34 56.36 56.44 55.68 54.66 49.90 44.79 49.27 50.37 57.72 56.67 46.66 46.86 47.35 43.36 41.89 41.76 40.14 34.76 31.63 33.04 35.99 38.53 42.31 42.28 42.73 44.31 41.73 44.98 47.16 46.55 47.48 48.75
59.96 60.04 59.81 59.30 58.27 57.70 57.21 56.67 56.00 56.06 56.16 56.15 56.04 56.21 55.63 55.29 49.57 47.89 54.99 58.16 56.92 58.04 46.76 48.04 46.13 45.93 39.93 38.76 39.55 37.59 33.13 34.60 38.89 39.23 38.76 41.10 37.74 40.84 41.25 41.25 42.48 43.32 46.49 47.92 48.28
60.17 60.09 60.05 59.65 58.78 58.10 57.45 56.66 56.09 56.12 55.98 55.69 55.78 55.90 55.17 53.80 47.95 46.98 59.01 58.37 57.52 55.13 47.70 48.97 46.49 42.97 37.83 37.02 36.01 35.03 34.02 36.70 39.10 39.21 38.69 36.98 37.39 39.46 38.63 37.59 42.31 42.07 43.82 45.16 46.46
59.67 59.65 59.77 59.70 59.48 58.65 57.58 56.53 56.29 56.19 55.27 54.95 55.53 55.33 55.17 49.50 42.46 48.37 58.75 58.67 58.48 50.83 47.28 44.79 41.14 37.38 35.47 34.23 35.94 32.68 36.89 37.08 37.97 38.85 38.06 36.75 38.70 38.73 39.63 42.02 43.94 43.12 42.77 47.08 46.69
58.82 58.95 59.34 59.77 59.60 58.78 57.61 56.85 56.34 55.87 54.75 54.68 54.79 55.01 49.00 47.85 49.03 52.47 59.03 56.11 48.88 48.37 44.54 42.57 40.02 37.66 34.72 35.28 37.09 33.91 36.19 38.66 39.10 38.89 37.91 39.17 38.24 38.90 40.51 42.16 42.19 46.15 46.05 44.65 43.68
58.52 58.49 58.66 58.79 58.95 58.57 57.98 57.06 56.28 55.65 54.24 54.61 54.09 54.21 45.23 46.11 51.60 50.77 50.31 49.39 47.48 45.69 42.22 42.63 40.40 40.31 37.71 36.83 35.11 37.66 37.18 37.56 37.96 38.61 37.58 37.23 37.61 36.08 40.41 41.71 42.65 42.36 40.88 40.50 39.95
57.75 58.27 58.23 58.55 58.48 58.22 57.80 57.36 56.45 55.57 53.98 54.44 54.09 49.83 43.93 50.31 49.36 48.57 49.96 46.16 45.64 44.32 42.38 43.55 42.46 39.59 39.00 37.00 39.94 38.47 34.77 36.44 36.46 36.10 36.35 38.04 35.33 35.49 39.48 41.63 40.01 38.81 38.62 38.20 37.78
55.81 57.21 57.33 57.56 57.61 57.55 57.55 57.01 56.41 54.86 53.94 54.31 53.77 46.18 45.23 53.54 49.67 50.90 48.10 48.34 46.66 45.30 44.32 44.47 43.61 40.65 38.85 39.75 37.40 33.90 32.96 30.26 36.16 38.92 38.73 37.04 32.94 37.39 38.67 39.82 37.22 37.52 37.39 36.40 36.34
56.79 56.65 56.87 56.39 56.03 56.37 56.33 56.49 55.61 54.22 54.16 54.33 46.63 44.01 45.21 55.09 49.35 50.97 49.83 48.44 44.96 44.99 44.00 46.67 42.18 37.52 37.77 32.66 30.10 30.65 26.42 28.85 34.23 38.73 37.22 36.48 33.81 36.35 38.73 40.00 37.22 35.42 35.01 35.32 34.70
56.55 56.79 56.51 56.17 55.81 55.32 55.61 54.36 53.72 52.52 51.93 49.86 48.23 44.37 48.79 49.73 50.10 46.30 47.18 45.91 42.42 42.73 40.53 39.65 35.82 31.84 30.44 29.44 24.67 25.55 26.57 24.97 27.68 34.95 34.74 32.23 33.39 34.53 37.23 36.33 34.04 32.37 32.68 32.82 32.79
56.19 56.53 56.51 56.39 55.70 53.72 53.19 52.24 48.90 45.82 45.52 47.36 46.00 47.30 48.10 51.05 50.66 44.38 45.86 43.34 43.03 40.12 33.53 35.50 31.39 28.94 30.98 32.20 32.62 30.92 28.51 26.81 29.74 34.99 32.76 32.91 31.57 31.59 34.90 33.11 31.37 31.38 31.26 31.48 31.73
55.93 55.99 56.07 56.15 55.51 53.98 53.51 50.08 49.35 43.48 40.07 45.87 46.99 46.62 49.87 49.93 45.99 48.95 46.03 41.50 39.25 34.85 34.39 31.85 29.37 34.91 35.80 34.56 33.28 31.57 28.52 28.60 31.89 35.22 33.60 31.40 29.32 30.41 32.27 31.63 31.43 30.76 29.69 29.93 30.42
55.65 55.42 55.08 55.53 53.84 52.53 51.29 50.56 49.28 47.35 40.97 42.88 45.80 45.57 47.66 48.68 45.63 47.76 44.28 40.97 37.13 34.28 32.59 30.18 33.83 36.85 35.69 33.00 32.09 30.41 29.14 29.21 30.45 31.39 30.12 28.18 26.73 30.25 32.58 32.91 33.23 31.72 30.82 30.47 29.18
54.24 54.77 53.89 53.11 51.36 50.17 49.70 51.21 51.56 47.32 32.38 35.86 39.95 44.19 47.44 47.86 42.71 50.20 46.79 43.37 37.46 36.21 34.29 32.67 36.90 35.56 33.07 32.51 32.87 27.07 34.22 33.66 31.25 27.29 23.09 27.56 20.72 26.43 30.36 30.27 30.94 30.25 28.87 28.40 28.68
52.29 54.31 52.82 54.25 47.32 47.12 49.23 52.26 49.65 41.31 20.21 36.47 39.79 48.05 47.62 43.24 40.64 43.03 47.72 43.51 36.52 35.58 35.05 33.11 32.92 32.18 31.36 32.91 35.22 31.93 34.28 31.17 29.60 25.31 23.13 22.99 20.68 21.73 29.23 27.93 28.62 28.57 29.35 28.02 28.39
51.73 53.76 52.88 50.53 47.26 45.88 49.26 48.07 44.89 29.49 21.00 32.96 40.47 40.43 41.44 42.50 37.66 39.49 41.30 44.46 42.16 36.69 34.81 34.70 36.31 35.62 35.19 36.24 35.27 35.39 31.61 29.71 26.48 24.17 18.93 24.31 23.38 21.05 25.74 28.83 28.75 29.31 29.17 28.52 27.87
51.81 53.69 52.81 51.41 46.82 47.51 47.87 46.05 33.70 25.36 35.79 32.05 33.12 39.41 38.50 37.39 34.92 35.06 35.20 32.95 31.14 29.22 28.67 32.05 33.84 35.48 37.18 32.27 33.34 31.31 26.91 19.46 18.57 17.72 18.88 26.05 22.06 25.61 28.58 30.83 31.51 30.37 28.10 27.40 27.21
52.00 52.86 52.52 50.40 47.73 48.93 47.70 39.09 26.16 31.28 31.55 37.80 34.96 35.02 34.29 34.95 33.77 33.06 32.25 29.53 31.34 31.31 26.39 25.62 24.63 31.96 34.76 32.75 30.33 28.39 27.43 21.02 16.53 16.59 19.74 25.07 20.58 24.56 30.69 32.03 32.08 30.85 28.88 28.09 26.05
51.95 50.52 48.80 49.95 48.82 48.68 43.15 31.36 27.54 31.60 36.25 34.83 34.21 30.26 30.70 33.76 33.86 31.83 30.76 30.33 32.98 32.92 28.39 25.06 26.05 32.86 34.36 34.49 33.70 28.86 24.56 28.64 24.45 23.16 18.22 22.01 24.18 28.19 30.16 29.58 29.40 28.66 28.52 25.72 24.63
45.73 46.07 45.33 50.24 49.97 46.72 39.25 33.25 33.98 37.31 38.23 36.82 30.86 32.73 27.84 30.68 30.99 30.76 29.74 33.60 32.97 34.42 34.94 30.97 25.28 30.94 32.65 34.19 32.53 30.60 32.31 22.54 22.80 17.49 16.52 20.60 20.77 23.74 25.79 27.98 29.81 27.73 26.04 25.11 23.75
44.01 39.52 44.71 49.36 48.48 41.16 32.95 34.25 35.80 39.43 39.85 36.46 33.93 33.83 32.63 30.91 31.22 29.05 31.26 33.87 34.84 33.30 33.96 31.22 28.79 27.55 30.79 29.05 27.58 27.57 25.76 26.53 26.10 23.36 17.49 16.22 17.78 22.78 23.51 28.26 29.55 27.13 26.35 23.87 21.66
41.97 32.71 43.89 47.92 36.19 34.37 32.92 36.17 39.98 38.40 40.48 38.83 37.80 37.30 35.23 33.88 31.61 30.77 30.68 33.54 35.31 34.19 30.61 32.09 28.99 23.02 26.59 30.07 31.06 29.04 27.00 26.81 19.10 20.87 21.72 20.44 21.25 28.82 25.65 25.67 28.16 25.87 25.97 24.60 23.37
38.23 35.61 44.45 44.27 31.27 32.25 34.96 36.13 38.19 37.20 37.50 37.21 36.31 37.69 37.72 33.40 30.26 32.45 32.50 34.85 34.75 32.53 30.86 32.08 26.66 19.63 23.48 26.13 28.72 26.13 27.81 28.02 27.92 26.06 21.55 14.69 19.75 28.71 27.67 26.44 26.37 24.95 25.20 24.47 23.48
36.12 30.86 35.82 38.33 35.97 33.37 32.23 33.53 34.03 38.33 37.65 38.79 37.81 38.73 34.43 32.11 33.90 30.43 29.79 33.45 34.87 34.92 38.62 35.62 28.10 24.06 22.30 24.93 26.22 24.55 27.26 28.55 27.01 19.49 23.01 22.60 23.79 25.48 26.44 25.31 25.49 25.07 24.25 22.27 21.67
36.85 32.43 32.25 29.10 32.91 33.34 33.58 32.44 32.51 32.89 37.63 38.43 35.47 36.40 34.45 30.82 29.84 28.81 30.09 29.60 32.47 35.45 32.08 31.69 26.37 22.29 25.73 27.66 26.60 26.26 25.89 26.48 23.77 26.80 20.64 23.41 23.04 28.36 26.91 27.08 26.00 24.99 23.87 23.31 21.69
33.06 33.10 30.06 29.36 32.59 31.87 34.06 31.05 30.51 33.06 34.43 33.55 32.97 36.02 34.85 31.46 31.73 28.94 30.84 28.96 28.25 30.29 29.16 29.50 23.04 19.64 16.56 26.09 25.99 23.09 24.71 24.95 25.58 25.72 24.22 23.40 23.69 29.28 28.30 26.59 24.99 24.99 23.78 22.46 21.61
37.84 36.43 33.26 30.48 30.00 30.92 30.55 31.41 31.21 33.15 34.76 36.48 34.99 34.16 33.22 34.95 37.20 37.12 36.24 35.15 34.40 31.05 29.17 28.17 25.22 22.70 19.30 24.81 24.96 18.95 20.58 23.63 22.88 25.37 25.12 21.39 26.17 26.32 25.01 26.22 24.53 23.67 24.22 23.06 22.35
MSLP
1019.27 1019.23 1019.35 1019.21 1019.18 1019.27 1019.14 1019.13 1018.93 1018.67 1018.45 1018.02 1017.64 1016.98 1016.45 1015.91 1014.94 1014.44 1014.36 1014.11 1014.05 1013.69 1013.44 1013.09 1012.83 1012.88 1012.86 1013.57 1013.84 1014.34 1015.40 1015.80 1015.21 1014.79 1013.88 1013.28 1012.98 1012.19 1011.74 1011.64 1011.55 1011.51 1011.61 1011.57 1011.57
1018.99 1019.06 1019.10 1019.04 1019.01 1019.06 1019.02 1019.07 1019.08 1018.75 1018.59 1018.26 1017.81 1017.18 1016.48 1016.16 1015.57 1014.54 1013.77 1013.76 1013.74 1013.58 1013.50 1013.44 1013.48 1013.40 1013.63 1013.92 1014.34 1014.85 1015.76 1015.45 1014.87 1014.45 1014.20 1013.70 1013.30 1012.68 1012.45 1012.16 1012.16 1012.24 1012.10 1011.95 1012.11
1018.70 1018.72 1018.87 1018.90 1018.78 1018.81 1018.99 1018.91 1019.17 1018.85 1018.68 1018.52 1018.03 1017.38 1016.51 1016.21 1015.64 1014.11 1013.63 1013.79 1013.77 1013.73 1013.73 1013.69 1013.64 1013.74 1014.12 1014.17 1014.67 1015.05 1015.43 1015.24 1014.59 1014.32 1014.23 1013.97 1013.60 1013.04 1012.73 1012.75 1012.58 1012.65 1012.82 1013.44 1014.06
1018.38 1018.34 1018.58 1018.60 1018.60 1018.66 1018.88 1018.97 1018.95 1019.04 1018.68 1018.52 1018.15 1017.55 1016.57 1016.15 1015.52 1013.68 1013.65 1013.69 1013.67 1013.55 1013.80 1013.80 1013.61 1014.27 1014.68 1014.82 1014.86 1014.99 1014.86 1015.03 1014.78 1014.30 1014.28 1013.98 1013.75 1013.43 1013.20 1012.88 1012.59 1013.32 1014.50 1015.22 1015.98
1018.03 1018.15 1018.21 1018.36 1018.26 1018.41 1018.62 1018.95 1018.95 1018.87 1018.92 1018.62 1018.19 1017.72 1016.84 1016.33 1014.89 1013.88 1013.84 1013.76 1013.54 1013.59 1014.01 1014.28 1014.18 1014.58 1014.91 1015.04 1014.95 1015.03 1015.10 1014.97 1014.80 1014.54 1014.23 1013.72 1013.58 1013.64 1013.32 1013.04 1013.88 1015.18 1015.98 1017.09 1017.75
1017.71 1017.88 1017.90 1018.15 1018.07 1018.29 1018.34 1018.74 1018.82 1018.86 1019.00 1018.71 1018.50 1017.89 1017.86 1016.21 1013.92 1013.83 1014.05 1013.93 1013.83 1013.82 1014.04 1014.16 1014.56 1014.58 1014.94 1015.08 1015.17 1015.24 1015.12 1014.93 1014.58 1014.26 1014.12 1014.06 1013.76 1013.85 1014.06 1014.34 1016.09 1016.93 1018.13 1018.76 1019.28
1017.61 1017.75 1017.58 1017.80 1017.81 1017.92 1018.18 1018.44 1018.61 1018.77 1018.92 1018.80 1018.64 1018.55 1018.01 1015.21 1013.85 1013.95 1013.95 1014.10 1014.01 1013.99 1014.12 1014.15 1014.33 1014.59 1015.09 1015.31 1015.29 1015.29 1015.45 1015.09 1014.61 1014.29 1014.16 1014.10 1014.39 1014.73 1015.12 1016.14 1017.65 1018.76 1019.61 1020.06 1020.62
1017.27 1017.62 1017.50 1017.57 1017.62 1017.64 1017.86 1018.20 1018.37 1018.75 1018.85 1018.77 1018.80 1018.87 1016.96 1014.02 1014.02 1014.03 1013.87 1013.86 1013.85 1014.02 1014.11 1014.24 1014.41 1014.73 1015.15 1015.41 1015.60 1015.82 1016.03 1015.87 1015.11 1014.48 1014.45 1014.65 1015.20 1015.60 1016.20 1016.91 1018.97 1019.81 1020.53 1020.99 1021.50
1016.69 1017.08 1017.18 1017.43 1017.43 1017.35 1017.69 1017.99 1018.24 1018.40 1018.66 1018.76 1018.78 1018.74 1016.08 1013.88 1013.81 1013.20 1013.53 1013.78 1013.79 1013.89 1014.09 1014.31 1014.63 1015.60 1015.84 1016.49 1016.95 1016.89 1016.85 1016.60 1015.79 1015.03 1015.06 1015.71 1016.05 1016.88 1017.34 1017.99 1019.71 1020.77 1021.37 1021.72 1022.09
1016.27 1016.77 1016.67 1017.05 1017.38 1017.38 1017.61 1018.05 1018.35 1018.43 1018.52 1018.60 1018.62 1018.41 1015.43 1014.05 1013.19 1013.29 1013.47 1013.48 1013.83 1014.03 1014.56 1015.15 1016.04 1016.52 1017.13 1017.40 1017.79 1017.47 1017.36 1017.17 1016.82 1016.00 1015.81 1016.35 1016.90 1017.87 1018.75 1019.37 1020.80 1021.74 1022.31 1022.69 1022.89
1016.08 1016.49 1016.47 1016.55 1017.19 1017.43 1017.79 1018.32 1018.86 1018.66 1018.36 1017.23 1017.12 1016.17 1014.97 1014.05 1013.17 1013.12 1013.45 1013.84 1014.04 1014.80 1015.38 1016.17 1017.13 1017.11 1017.16 1017.39 1017.42 1017.49 1017.59 1017.71 1017.47 1016.53 1016.90 1016.91 1017.49 1018.91 1019.84 1020.67 1021.69 1022.52 1023.11 1023.53 1023.71
1015.38 1016.25 1016.20 1016.33 1016.85 1017.48 1017.46 1017.64 1017.45 1017.69 1017.27 1016.32 1016.17 1015.89 1014.94 1014.56 1014.29 1013.24 1013.17 1014.17 1014.62 1015.45 1015.99 1016.97 1017.25 1016.60 1016.98 1017.47 1017.75 1017.83 1017.88 1017.65 1017.21 1016.65 1017.12 1017.35 1018.11 1019.40 1020.49 1021.45 1022.21 1022.95 1023.74 1024.24 1024.33
1015.24 1015.86 1015.88 1016.29 1016.98 1017.45 1017.46 1017.29 1017.06 1017.32 1017.27 1015.64 1014.75 1014.20 1013.92 1014.34 1013.96 1012.96 1013.40 1013.89 1014.75 1015.57 1016.18 1016.81 1016.64 1016.34 1016.83 1017.15 1017.53 1017.68 1017.86 1017.67 1017.46 1017.15 1017.23 1017.79 1018.54 1019.65 1020.89 1021.75 1022.48 1023.22 1023.98 1024.52 1024.75
1015.79 1015.64 1015.80 1016.57 1017.55 1017.41 1017.16 1017.05 1017.14 1017.40 1017.27 1015.04 1013.94 1012.63 1012.82 1013.22 1013.15 1012.25 1012.58 1013.71 1014.74 1015.14 1016.20 1016.40 1015.87 1016.10 1016.63 1016.90 1017.25 1017.53 1017.05 1017.24 1017.50 1017.87 1018.45 1018.64 1019.19 1019.63 1020.54 1021.72 1022.56 1023.38 1024.05 1024.57 1024.86
1015.67 1015.65 1015.94 1016.03 1016.53 1017.21 1016.79 1016.51 1017.27 1017.61 1017.26 1013.56 1013.05 1012.45 1012.32 1012.91 1012.34 1012.36 1012.20 1012.97 1014.14 1015.04 1015.73 1015.60 1015.52 1015.71 1016.04 1016.21 1016.41 1016.98 1017.02 1017.62 1017.92 1018.44 1018.98 1019.59 1020.75 1019.67 1021.03 1021.97 1022.59 1023.39 1024.13 1024.83 1025.20
1015.52 1015.84 1015.98 1016.43 1016.75 1016.31 1016.52 1016.76 1017.68 1018.46 1015.78 1013.13 1012.46 1012.57 1012.76 1012.81 1012.45 1012.60 1012.65 1013.01 1014.03 1015.10 1015.37 1015.37 1015.14 1015.16 1015.19 1015.38 1015.76 1016.53 1017.29 1018.22 1019.14 1019.71 1019.74 1019.57 1020.55 1019.85 1020.98 1021.21 1022.35 1023.31 1024.11 1024.86 1025.31
1015.59 1015.52 1015.96 1015.97 1016.45 1016.08 1016.49 1017.48 1018.09 1017.09 1014.37 1013.34 1012.71 1012.77 1012.87 1012.81 1012.78 1012.72 1013.10 1013.64 1014.13 1015.29 1015.56 1015.46 1014.92 1014.63 1014.80 1015.39 1015.87 1016.67 1018.04 1019.36 1019.99 1020.48 1020.03 1019.85 1020.68 1019.70 1020.13 1020.98 1021.84 1022.99 1024.30 1025.11 1025.70
1015.17 1015.58 1015.45 1015.73 1016.00 1016.12 1016.69 1017.41 1016.92 1014.61 1013.99 1012.98 1012.62 1012.80 1013.13 1012.91 1013.04 1013.34 1013.61 1014.08 1014.42 1014.81 1015.81 1015.81 1015.16 1014.48 1014.63 1015.14 1015.65 1016.70 1017.76 1019.20 1019.69 1020.38 1020.17 1020.20 1019.94 1019.44 1020.27 1021.25 1022.19 1023.15 1024.18 1025.13 1025.84
1015.04 1015.53 1015.47 1015.58 1015.96 1016.30 1016.86 1016.64 1015.07 1014.22 1013.35 1012.90 1012.71 1012.86 1013.05 1012.99 1013.25 1013.59 1014.10 1014.25 1014.14 1014.50 1015.30 1015.73 1015.35 1014.68 1014.45 1014.77 1015.62 1017.10 1017.73 1018.23 1019.34 1020.17 1020.44 1019.62 1019.58 1020.00 1020.78 1021.79 1022.70 1023.52 1024.40 1025.40 1026.10
1015.19 1015.51 1015.33 1015.39 1015.80 1016.36 1016.49 1015.71 1014.51 1013.66 1012.99 1012.55 1012.45 1012.57 1012.77 1012.96 1013.44 1013.95 1014.27 1013.86 1013.91 1013.81 1013.92 1014.89 1015.56 1015.32 1015.22 1015.25 1015.94 1016.22 1017.18 1018.62 1019.90 1020.46 1020.34 1019.65 1020.08 1020.17 1021.01 1021.69 1022.73 1023.71 1024.54 1025.45 1026.30
1015.29 1015.55 1015.09 1015.21 1015.49 1016.07 1015.77 1015.23 1014.11 1013.61 1013.31 1012.91 1012.62 1012.52 1012.68 1012.87 1013.28 1013.92 1014.01 1013.90 1013.89 1014.21 1014.27 1014.95 1015.60 1016.32 1016.07 1016.08 1016.36 1017.09 1017.53 1018.53 1019.50 1020.29 1020.49 1020.24 1019.50 1019.27 1020.17 1020.90 1021.91 1023.27 1024.62 1025.53 1026.48
1014.70 1015.36 1015.11 1014.90 1015.54 1015.54 1015.48 1014.68 1014.00 1013.40 1013.14 1013.13 1012.88 1012.77 1012.71 1012.84 1013.29 1013.88 1014.12 1014.24 1014.23 1014.31 1015.08 1015.28 1015.80 1016.71 1016.66 1016.65 1016.72 1016.94 1017.54 1018.37 1019.48 1020.10 1020.24 1020.63 1019.33 1019.22 1020.43 1021.19 1022.16 1023.66 1024.73 1025.74 1026.48
1014.16 1014.86 1014.95 1014.87 1014.51 1015.09 1014.66 1014.00 1014.04 1013.81 1013.48 1013.31 1013.12 1013.04 1013.07 1013.10 1013.62 1013.92 1014.09 1014.58 1014.65 1014.79 1014.88 1015.48 1016.40 1017.29 1017.56 1017.81 1017.35 1017.38 1017.74 1018.35 1019.19 1020.01 1019.52 1020.91 1019.07 1019.62 1020.70 1021.70 1022.51 1023.65 1024.84 1025.67 1026.25
1014.23 1014.61 1015.01 1014.70 1014.32 1014.04 1013.90 1013.86 1014.05 1013.74 1013.74 1013.33 1013.23 1013.27 1013.42 1013.55 1013.92 1014.23 1014.65 1014.95 1014.92 1015.22 1015.44 1015.59 1016.72 1017.54 1017.70 1017.62 1017.55 1018.00 1018.06 1018.60 1019.30 1019.97 1019.24 1018.35 1018.52 1019.53 1020.63 1021.51 1022.44 1023.35 1024.39 1025.38 1026.08
1013.62 1013.33 1013.16 1013.68 1013.86 1013.51 1013.78 1013.62 1013.84 1013.87 1013.85 1013.55 1013.55 1013.55 1013.82 1014.24 1014.30 1014.71 1015.12 1015.49 1015.55 1015.70 1016.13 1016.62 1017.64 1018.44 1018.45 1018.18 1018.29 1018.05 1018.29 1018.83 1019.27 1018.43 1019.23 1017.25 1018.46 1017.91 1019.45 1020.44 1021.25 1022.85 1024.31 1025.01 1025.90
1012.83 1013.05 1013.67 1013.51 1013.46 1013.94 1013.81 1013.36 1013.31 1013.82 1013.92 1013.75 1013.97 1013.84 1013.98 1014.25 1014.29 1014.71 1015.21 1015.67 1015.81 1016.43 1016.75 1017.59 1018.47 1019.31 1019.40 1018.89 1018.81 1018.62 1018.50 1018.59 1018.22 1018.33 1018.18 1018.31 1017.93 1018.13 1018.58 1019.82 1021.42 1022.49 1023.81 1024.80 1025.56
1012.28 1012.62 1012.96 1012.98 1013.26 1013.58 1012.91 1012.45 1013.05 1013.84 1013.81 1013.90 1013.85 1014.06 1014.19 1014.31 1014.43 1014.56 1014.76 1015.08 1015.32 1016.41 1017.58 1018.24 1019.20 1020.21 1020.16 1019.68 1019.38 1018.70 1017.72 1017.37 1017.57 1017.63 1017.68 1017.96 1017.45 1018.29 1019.40 1020.35 1021.48 1022.67 1023.80 1024.67 1025.37
Wind_Speed
8 8 8 7 6 6 6 7 8 10 14 16 18 19 20 20 15 2 3 3 4 10 8 5 4 7 4 4 4 3 5 1 2 5 3 3 7 3 4 2 2 1 3 4 6
10 9 9 7 7 7 6 7 8 9 12 15 18 20 20 19 4 3 1 3 5 9 5 7 7 7 4 3 4 6 4 5 3 1 3 4 2 4 1 3 1 1 6 7 5
11 9 9 8 8 8 7 6 8 9 11 15 17 21 20 10 4 1 0 1 4 6 2 1 1 2 4 3 3 2 4 2 3 2 2 1 3 2 2 1 6 5 4 5 13
11 10 10 9 9 8 8 7 6 7 10 13 17 21 23 3 4 1 3 1 4 4 3 4 5 4 3 3 3 2 3 2 5 4 5 2 4 4 4 8 4 2 10 10 15
10 11 10 10 9 9 8 8 5 5 8 11 15 19 9 5 7 3 2 3 3 3 5 4 6 2 2 2 4 2 3 6 5 8 6 5 7 6 8 10 7 17 17 15 14
9 9 10 11 10 10 8 8 5 4 6 10 13 15 3 4 1 4 4 5 2 2 2 4 1 0 2 1 1 2 3 8 5 6 3 3 5 2 5 8 18 18 17 16 17
9 8 10 11 11 10 9 8 6 2 3 7 10 4 2 15 3 4 3 1 0 0 2 1 1 4 1 3 2 3 5 7 3 1 1 5 4 2 7 19 17 15 14 15 15
11 11 9 10 11 9 8 7 4 3 3 5 8 2 9 2 1 6 2 4 4 3 1 2 2 1 1 1 6 3 5 3 4 5 4 3 4 4 10 16 11 11 11 12 14
11 12 10 8 6 6 6 3 6 4 4 5 1 2 11 7 2 5 7 4 3 3 1 1 3 3 5 4 5 6 2 2 7 5 3 7 5 5 9 12 11 9 9 10 9
10 13 11 9 7 5 5 6 4 1 3 3 0 3 5 4 2 2 1 4 3 4 4 6 6 3 3 4 5 2 1 0 2 4 7 4 8 6 9 11 9 8 7 8 9
10 11 10 7 4 13 8 3 1 2 3 8 4 4 4 7 3 2 3 4 4 5 3 4 3 7 8 5 2 2 1 3 5 10 1 7 6 3 5 7 8 7 7 6 7
9 10 8 8 11 13 4 3 1 2 7 11 11 9 8 3 6 1 7 5 4 5 4 5 6 10 5 3 4 3 2 6 6 6 7 7 4 2 3 3 4 5 6 5 5
7 8 8 8 13 4 3 3 2 0 4 7 9 8 7 10 12 16 8 5 5 5 6 8 6 6 5 4 4 3 4 4 7 3 3 2 4 5 2 4 5 5 4 4 5
6 6 9 17 5 3 3 3 3 1 4 8 5 8 5 6 7 7 12 8 3 10 8 6 7 6 3 5 6 3 7 7 5 2 4 1 8 6 5 3 1 2 4 5 6
6 6 18 12 8 5 5 6 3 5 4 3 4 2 5 9 1 3 4 5 9 6 7 7 3 3 4 6 7 7 2 1 1 1 2 2 1 2 5 5 5 2 2 5 6
5 11 17 1 2 3 6 8 4 6 11 3 5 4 5 3 1 3 4 5 6 4 2 6 1 4 7 4 3 4 3 5 4 3 4 7 7 3 6 5 3 3 2 3 5
5 10 12 4 4 5 7 4 4 7 3 3 4 5 3 5 2 3 6 6 6 5 4 1 7 4 4 3 1 4 6 3 4 1 6 3 2 9 5 4 5 6 4 3 4
5 9 4 3 3 7 4 3 6 6 6 4 3 3 5 4 4 3 5 4 1 5 3 5 3 5 3 7 7 5 8 7 6 4 5 2 7 7 4 4 4 5 4 3 5
7 3 3 3 4 2 6 8 8 6 5 4 4 4 4 3 4 3 5 6 8 9 8 5 4 1 3 4 5 4 4 4 2 1 2 4 6 2 4 5 5 6 4 1 4
3 1 2 7 6 3 8 11 6 3 2 1 8 5 7 6 5 5 6 4 5 10 5 5 1 1 1 3 4 4 6 4 2 2 6 7 6 10 8 11 9 8 6 3 2
3 3 3 9 4 3 10 11 5 5 2 2 1 2 3 5 7 5 6 3 4 4 5 5 4 2 1 4 7 2 1 4 3 4 4 7 10 7 7 7 14 8 6 4 2
3 4 3 7 6 2 6 7 3 2 4 3 1 1 3 3 4 6 8 4 6 5 8 5 5 5 6 0 1 1 5 5 5 5 5 1 15 2 1 3 7 7 7 6 3
3 3 1 3 10 13 5 9 3 2 5 5 4 4 2 3 0 4 3 3 6 2 8 8 2 2 6 4 2 3 4 4 4 3 14 4 13 2 3 5 5 8 6 5 3
2 4 1 3 1 6 14 13 12 5 4 2 2 3 2 2 3 3 3 4 3 3 8 6 4 7 9 5 4 3 4 5 5 3 13 16 24 9 7 9 8 7 7 6 4
4 4 3 7 14 14 7 5 14 9 6 7 2 4 5 5 3 4 2 2 3 3 4 4 1 1 2 1 1 4 5 7 10 17 10 19 13 14 10 13 15 9 8 8 5
4 3 2 3 5 16 10 15 9 13 7 5 3 8 6 6 7 5 4 3 5 2 3 2 4 3 6 4 5 7 3 11 16 14 16 13 24 11 3 8 10 12 10 8 6
4 1 2 6 7 12 21 17 14 7 2 4 5 3 5 6 6 6 8 5 6 9 4 4 5 3 6 3 5 9 10 13 4 6 6 9 11 5 3 6 10 11 9 8 8
Wind_Direction
246 248 259 271 287 302 315 328 343 347 346 345 341 339 338 337 323 66 11 275 310 322 325 304 30 353 45 43 31 110 58 159 192 142 244 15 13 311 316 347 42 73 161 252 286
242 247 252 260 278 289 301 319 333 345 346 346 341 334 333 336 340 327 243 289 333 345 27 32 359 357 42 35 24 78 94 222 220 205 11 294 250 298 288 325 338 332 307 303 334
238 242 249 254 263 276 289 305 325 344 349 346 341 330 328 329 329 259 184 345 351 354 5 294 27 34 50 15 13 112 171 217 326 317 50 318 295 257 254 289 232 253 239 359 46
239 240 244 247 255 264 275 292 317 335 348 345 342 329 326 311 298 247 139 332 334 326 20 2 34 45 58 27 345 26 220 124 282 329 352 282 279 260 195 235 229 298 59 71 65
241 241 244 245 246 256 267 279 297 322 339 344 347 333 353 360 259 12 63 1 356 41 55 13 49 78 42 295 329 137 335 324 294 291 255 301 248 224 246 257 354 71 66 66 61
250 246 246 247 244 254 253 266 270 302 339 346 346 340 308 301 256 64 20 346 340 67 32 47 52 26 102 313 101 302 282 293 284 274 273 244 299 45 359 13 70 68 65 61 57
283 274 264 249 239 239 249 252 233 249 325 334 349 3 270 245 101 355 351 234 241 192 114 238 81 66 115 335 340 316 335 329 328 26 123 178 26 21 336 94 83 75 69 63 55
267 271 269 262 241 236 248 252 212 191 296 319 338 349 252 221 316 293 177 300 229 222 226 267 166 119 132 322 9 40 51 28 308 358 330 115 263 33 21 95 84 82 77 68 56
241 247 243 247 261 229 238 203 155 170 243 270 90 24 267 320 240 248 158 193 133 134 183 105 63 74 33 77 358 8 198 182 314 36 57 19 272 65 21 98 89 68 58 55 44
237 241 227 240 229 227 147 135 140 252 219 185 315 27 268 280 275 104 243 130 128 85 55 48 45 76 51 93 234 197 257 254 270 284 31 300 261 44 23 77 85 72 55 46 37
238 239 229 208 203 128 117 117 336 222 252 200 207 252 293 299 257 119 139 92 72 56 134 27 69 234 212 204 119 78 168 249 255 267 340 257 241 78 53 63 70 60 50 39 31
212 233 228 210 157 161 133 181 221 142 305 231 241 268 274 68 324 208 138 151 143 189 108 42 236 237 177 168 230 224 273 273 278 269 168 269 246 58 49 59 88 91 63 34 3
203 220 211 158 143 131 165 185 63 287 265 272 206 207 210 167 216 241 153 151 161 188 175 167 221 103 150 185 210 220 201 238 231 311 301 307 257 203 89 125 102 72 67 45 21
281 222 142 127 133 155 188 192 81 280 303 271 244 257 170 142 261 203 184 144 202 221 168 219 246 233 176 244 151 273 226 231 234 107 240 44 285 219 179 172 142 45 28 9 7
282 165 149 153 139 167 201 147 131 58 294 213 194 186 151 170 141 40 175 114 173 174 126 234 163 131 156 216 154 225 161 172 174 230 26 345 357 291 117 242 217 207 52 16 5
283 183 160 75 92 222 130 106 72 65 247 305 142 163 133 237 311 121 107 88 142 170 207 217 198 164 195 194 179 130 88 45 50 80 271 205 179 250 195 211 174 185 149 24 359
244 196 165 141 212 159 127 106 118 202 336 238 192 163 187 164 212 114 149 162 146 135 229 270 220 215 149 251 97 102 87 325 323 353 239 193 187 253 193 200 195 175 150 38 13
216 188 185 172 150 146 104 136 195 197 210 309 138 97 180 149 217 130 124 154 244 84 118 176 317 169 162 179 184 166 160 165 232 217 254 173 243 260 180 148 115 106 113 39 4
155 190 169 182 160 130 156 187 212 195 190 199 124 134 216 221 149 126 176 194 195 170 174 158 266 279 159 149 144 173 167 180 170 116 16 230 292 195 150 179 164 171 165 72 358
139 196 207 151 143 144 182 210 224 232 343 41 184 170 191 191 143 165 183 217 216 184 152 194 153 256 79 91 33 149 157 71 7 272 259 271 281 255 225 224 200 185 190 165 14
144 179 185 138 123 176 200 221 212 225 310 281 239 178 174 176 168 192 209 277 233 160 114 133 127 255 120 208 185 113 179 73 142 164 222 284 270 212 227 203 198 170 162 160 163
189 182 208 150 167 126 211 196 314 132 182 261 5 285 193 132 151 206 209 240 347 150 159 189 138 180 200 52 299 139 189 150 132 249 242 178 262 347 234 158 137 146 155 157 152
197 140 232 192 177 212 174 216 236 260 190 179 219 226 217 156 11 194 186 45 14 175 164 182 173 49 347 353 11 203 188 162 104 80 259 197 268 116 105 151 166 156 157 143 116
146 160 189 212 214 203 200 209 214 187 281 218 223 162 138 200 244 212 175 11 357 67 48 86 143 176 218 202 141 182 196 184 164 196 273 248 270 240 210 214 193 173 153 143 118
188 203 192 177 206 206 173 190 204 211 209 173 228 183 169 187 186 186 81 25 20 22 63 93 172 90 264 162 213 230 200 195 209 242 226 268 249 265 213 211 201 157 152 145 145
180 170 351 169 163 198 204 208 214 201 176 182 196 194 191 195 183 182 160 195 203 9 98 12 140 102 320 285 241 264 218 237 247 259 260 272 271 289 292 108 149 158 155 152 149
164 152 123 185 165 177 209 210 209 137 193 188 186 223 220 242 219 223 199 202 171 160 167 106 105 114 259 301 323 293 221 225 219 215 208 234 251 168 174 179 160 145 153 152 147